Tracking 32422 objects as of 7-Dec-2025
HD Live streaming from Space Station
objects crossing your sky now

AMOS 2

Track AMOS 2 now!
AMOS 2 is classified as:


NORAD ID: 28132
Int'l Code: 2003-059A
Perigee: 36,020.9 km
Apogee: 36,063.4 km
Inclination: 8.0 °
Period: 1,448.8 minutes
Semi major axis: 42413 km
RCS: 36.2156 m2 (large)
Launch date: December 27, 2003
Source: Israel (ISRA)
Launch site: TYURATAM MISSILE AND SPACE COMPLEX (TTMTR)

Ku-band communications, Europe, Middle East, East Coast of USA.
Your satellite tracking list
Your tracking list is empty




NASA's NSSDC Master Catalog

Two Line Element Set (TLE):
1 28132U 03059A   25340.73007023 -.00000060  00000-0  00000-0 0  9996
2 28132   8.0496  65.1225 0005013 173.5986 190.6442  0.99392205 80131
Source of the keplerian elements: AFSPC